TimeEDT,TemperatureF,Dew PointF,Humidity,Sea Level PressureIn,VisibilityMPH,Wind Direction,Wind SpeedMPH,Gust SpeedMPH,PrecipitationIn,Events,Conditions,WindDirDegrees,DateUTC
12:15 AM,48.2,44.6,87,30.33,10.0,Calm,Calm,-,N/A,,Mostly Cloudy,0,2013-10-30 04:15:00
12:35 AM,46.4,44.6,93,30.32,10.0,Calm,Calm,-,N/A,,Scattered Clouds,0,2013-10-30 04:35:00
12:55 AM,46.4,44.6,93,30.33,10.0,Calm,Calm,-,N/A,,Scattered Clouds,0,2013-10-30 04:55:00
1:15 AM,46.4,44.6,93,30.32,10.0,Calm,Calm,-,N/A,,Overcast,0,2013-10-30 05:15:00
1:35 AM,46.4,44.6,93,30.32,10.0,Calm,Calm,-,N/A,,Overcast,0,2013-10-30 05:35:00
1:55 AM,48.2,44.6,87,30.31,10.0,Calm,Calm,-,N/A,,Mostly Cloudy,0,2013-10-30 05:55:00
2:15 AM,48.2,46.4,93,30.31,10.0,Calm,Calm,-,N/A,,Mostly Cloudy,0,2013-10-30 06:15:00
2:35 AM,46.4,44.6,93,30.30,10.0,Calm,Calm,-,N/A,,Scattered Clouds,0,2013-10-30 06:35:00
2:55 AM,46.4,44.6,93,30.29,10.0,Calm,Calm,-,N/A,,Clear,0,2013-10-30 06:55:00
3:15 AM,44.6,44.6,100,30.29,10.0,Calm,Calm,-,N/A,,Clear,0,2013-10-30 07:15:00
3:35 AM,44.6,44.6,100,30.29,10.0,Calm,Calm,-,N/A,,Scattered Clouds,0,2013-10-30 07:35:00
3:55 AM,46.4,44.6,93,30.28,10.0,Calm,Calm,-,N/A,,Mostly Cloudy,0,2013-10-30 07:55:00
4:15 AM,46.4,44.6,93,30.28,10.0,Calm,Calm,-,N/A,,Overcast,0,2013-10-30 08:15:00
4:35 AM,46.4,44.6,93,30.28,10.0,Calm,Calm,-,N/A,,Overcast,0,2013-10-30 08:35:00
4:55 AM,46.4,46.4,100,30.27,10.0,Calm,Calm,-,N/A,Rain,Light Rain,0,2013-10-30 08:55:00
5:15 AM,48.2,46.4,93,30.27,5.0,Calm,Calm,-,N/A,Rain,Light Rain,0,2013-10-30 09:15:00
5:35 AM,48.2,46.4,93,30.27,10.0,Calm,Calm,-,N/A,,Overcast,0,2013-10-30 09:35:00
5:55 AM,48.2,48.2,100,30.27,10.0,Calm,Calm,-,N/A,,Overcast,0,2013-10-30 09:55:00
6:15 AM,50.0,48.2,94,30.26,10.0,Calm,Calm,-,N/A,,Overcast,0,2013-10-30 10:15:00
6:35 AM,50.0,48.2,94,30.27,10.0,Calm,Calm,-,N/A,,Overcast,0,2013-10-30 10:35:00
6:55 AM,50.0,48.2,94,30.27,10.0,Calm,Calm,-,N/A,,Overcast,0,2013-10-30 10:55:00
7:15 AM,50.0,48.2,94,30.27,10.0,Calm,Calm,-,N/A,,Overcast,0,2013-10-30 11:15:00
7:35 AM,50.0,48.2,94,30.26,10.0,Calm,Calm,-,N/A,,Overcast,0,2013-10-30 11:35:00
7:55 AM,48.2,48.2,100,30.26,7.0,Calm,Calm,-,N/A,,Mostly Cloudy,0,2013-10-30 11:55:00
8:15 AM,48.2,48.2,100,30.26,7.0,Calm,Calm,-,N/A,,Mostly Cloudy,0,2013-10-30 12:15:00
8:35 AM,50.0,50.0,100,30.27,7.0,Calm,Calm,-,N/A,,Mostly Cloudy,0,2013-10-30 12:35:00
8:55 AM,50.0,50.0,100,30.27,7.0,Calm,Calm,-,N/A,,Mostly Cloudy,0,2013-10-30 12:55:00
9:15 AM,51.8,50.0,94,30.28,7.0,Calm,Calm,-,N/A,,Overcast,0,2013-10-30 13:15:00
9:35 AM,51.8,51.8,100,30.27,7.0,South,3.5,-,N/A,,Overcast,190,2013-10-30 13:35:00
9:55 AM,53.6,51.8,94,30.26,7.0,Calm,Calm,-,N/A,,Overcast,0,2013-10-30 13:55:00
10:15 AM,55.4,51.8,88,30.26,10.0,South,3.5,-,N/A,,Overcast,180,2013-10-30 14:15:00
10:35 AM,55.4,51.8,88,30.26,10.0,South,3.5,-,N/A,,Overcast,180,2013-10-30 14:35:00
10:55 AM,57.2,51.8,82,30.26,10.0,SSW,4.6,-,N/A,,Overcast,200,2013-10-30 14:55:00
11:15 AM,59.0,51.8,77,30.26,10.0,Calm,Calm,-,N/A,,Overcast,0,2013-10-30 15:15:00
11:35 AM,59.0,53.6,82,30.25,10.0,SSW,3.5,-,N/A,,Overcast,200,2013-10-30 15:35:00
11:55 AM,60.8,53.6,77,30.25,10.0,Calm,Calm,-,N/A,,Overcast,0,2013-10-30 15:55:00
12:15 PM,60.8,53.6,77,30.24,10.0,Calm,Calm,-,N/A,,Overcast,0,2013-10-30 16:15:00
12:35 PM,62.6,53.6,72,30.24,10.0,SW,3.5,-,N/A,,Overcast,230,2013-10-30 16:35:00
12:55 PM,62.6,53.6,72,30.23,10.0,Calm,Calm,-,N/A,,Overcast,0,2013-10-30 16:55:00
1:15 PM,62.6,53.6,72,30.21,10.0,Calm,Calm,-,N/A,,Overcast,0,2013-10-30 17:15:00
1:35 PM,62.6,53.6,72,30.20,10.0,Calm,Calm,-,N/A,,Overcast,0,2013-10-30 17:35:00
1:55 PM,64.4,53.6,68,30.19,10.0,Calm,Calm,-,N/A,,Overcast,0,2013-10-30 17:55:00
2:15 PM,64.4,53.6,68,30.19,10.0,ENE,3.5,-,N/A,,Overcast,60,2013-10-30 18:15:00
2:35 PM,66.2,53.6,64,30.18,10.0,Calm,Calm,-,N/A,,Overcast,0,2013-10-30 18:35:00
2:55 PM,66.2,53.6,64,30.16,10.0,Calm,Calm,-,N/A,,Scattered Clouds,0,2013-10-30 18:55:00
3:15 PM,66.2,53.6,64,30.16,10.0,Calm,Calm,-,N/A,,Clear,0,2013-10-30 19:15:00
3:35 PM,66.2,53.6,64,30.16,10.0,Calm,Calm,-,N/A,,Clear,0,2013-10-30 19:35:00
3:55 PM,68.0,53.6,60,30.16,10.0,Calm,Calm,-,N/A,,Clear,0,2013-10-30 19:55:00
4:15 PM,68.0,53.6,60,30.16,10.0,Calm,Calm,-,N/A,,Clear,0,2013-10-30 20:15:00
4:35 PM,68.0,53.6,60,30.16,10.0,Calm,Calm,-,N/A,,Clear,0,2013-10-30 20:35:00
4:55 PM,66.2,53.6,64,30.16,10.0,SSE,3.5,-,N/A,,Clear,160,2013-10-30 20:55:00
5:15 PM,66.2,55.4,68,30.16,10.0,South,3.5,-,N/A,,Clear,170,2013-10-30 21:15:00
5:35 PM,66.2,55.4,68,30.16,10.0,South,4.6,-,N/A,,Clear,180,2013-10-30 21:35:00
5:55 PM,64.4,55.4,73,30.17,10.0,South,3.5,-,N/A,,Clear,190,2013-10-30 21:55:00
6:15 PM,62.6,55.4,77,30.18,10.0,Calm,Calm,-,N/A,,Clear,0,2013-10-30 22:15:00
6:35 PM,62.6,55.4,77,30.18,10.0,SE,5.8,-,N/A,Thunderstorm,Clear,140,2013-10-30 22:35:00
6:55 PM,60.8,55.4,82,30.19,10.0,SW,3.5,-,N/A,,Mostly Cloudy,220,2013-10-30 22:55:00
7:15 PM,60.8,55.4,82,30.20,10.0,SSW,3.5,-,N/A,,Overcast,210,2013-10-30 23:15:00
8:55 PM,59.0,55.4,88,30.20,10.0,South,3.5,-,N/A,,Overcast,190,2013-10-31 00:55:00
9:15 PM,59.0,55.4,88,30.21,10.0,Calm,Calm,-,N/A,,Overcast,0,2013-10-31 01:15:00
9:35 PM,59.0,55.4,88,30.21,10.0,Calm,Calm,-,N/A,,Overcast,0,2013-10-31 01:35:00
9:55 PM,59.0,55.4,88,30.21,10.0,ESE,3.5,-,N/A,,Mostly Cloudy,110,2013-10-31 01:55:00
10:15 PM,57.2,55.4,94,30.21,10.0,Calm,Calm,-,N/A,,Scattered Clouds,0,2013-10-31 02:15:00
10:35 PM,55.4,53.6,94,30.22,7.0,Calm,Calm,-,N/A,,Scattered Clouds,0,2013-10-31 02:35:00
10:55 PM,55.4,55.4,100,30.22,7.0,Calm,Calm,-,N/A,,Mostly Cloudy,0,2013-10-31 02:55:00
11:15 PM,55.4,55.4,100,30.22,7.0,Calm,Calm,-,N/A,,Overcast,0,2013-10-31 03:15:00
11:35 PM,55.4,55.4,100,30.21,10.0,Calm,Calm,-,N/A,,Overcast,0,2013-10-31 03:35:00
11:55 PM,55.4,55.4,100,30.20,7.0,Calm,Calm,-,N/A,,Overcast,0,2013-10-31 03:55:00